﻿"﻿最低氣溫 (攝氏度) - �F��"
"Minimum Temperature (°C) - Sha Tin"
年/Year,月/Month,日/Day,數值/Value,"數據完整性/data Completeness"
2024,1,1,18.5,C
2024,1,2,16.1,C
2024,1,3,14.5,C
2024,1,4,13.4,C
2024,1,5,13.9,C
2024,1,6,14.4,C
2024,1,7,15.9,C
2024,1,8,17.3,C
2024,1,9,17.1,C
2024,1,10,17.1,C
2024,1,11,16.3,C
2024,1,12,15.0,C
2024,1,13,15.1,C
2024,1,14,15.4,C
2024,1,15,14.7,C
2024,1,16,17.2,#
2024,1,17,16.0,C
2024,1,18,18.2,C
2024,1,19,16.0,C
2024,1,20,18.0,C
2024,1,21,14.6,C
2024,1,22,8.5,C
2024,1,23,5.2,C
2024,1,24,4.4,C
2024,1,25,7.7,C
2024,1,26,11.2,C
2024,1,27,12.1,C
2024,1,28,11.0,C
2024,1,29,13.1,C
2024,1,30,16.5,#
2024,1,31,17.8,C
2024,2,1,19.4,C
2024,2,2,18.7,C
2024,2,3,18.5,C
2024,2,4,19.7,C
2024,2,5,18.3,C
2024,2,6,17.6,C
2024,2,7,11.9,C
2024,2,8,9.8,C
2024,2,9,9.2,C
2024,2,10,10.8,C
2024,2,11,8.5,C
2024,2,12,11.1,C
2024,2,13,14.9,C
2024,2,14,16.7,C
2024,2,15,17.7,C
2024,2,16,17.1,C
2024,2,17,17.4,C
2024,2,18,20.0,C
2024,2,19,20.8,C
2024,2,20,22.3,C
2024,2,21,21.7,C
2024,2,22,21.8,C
2024,2,23,18.4,C
2024,2,24,15.0,C
2024,2,25,13.0,C
2024,2,26,14.3,C
2024,2,27,14.4,C
2024,2,28,17.2,C
2024,2,29,13.5,C
2024,3,1,9.2,#
2024,3,2,8.4,C
2024,3,3,12.7,C
2024,3,4,17.7,C
2024,3,5,22.2,C
2024,3,6,18.5,C
2024,3,7,15.9,C
2024,3,8,15.9,C
2024,3,9,14.5,C
2024,3,10,14.7,C
2024,3,11,16.0,C
2024,3,12,14.2,C
2024,3,13,15.1,C
2024,3,14,18.5,C
2024,3,15,19.2,C
2024,3,16,19.6,C
2024,3,17,21.0,C
2024,3,18,20.1,C
2024,3,19,17.9,C
2024,3,20,17.4,C
2024,3,21,16.6,C
2024,3,22,20.3,C
2024,3,23,22.3,C
2024,3,24,23.3,C
2024,3,25,23.0,C
2024,3,26,22.5,C
2024,3,27,20.6,C
2024,3,28,21.8,C
2024,3,29,22.7,C
2024,3,30,23.8,C
2024,3,31,25.6,C
"*** 沒有數據/unavailable"
"# 數據不完整/data incomplete"
"C 數據完整/data Complete"
